Regional Weather Roundup
Issued by NWS

Home | Current Version | Previous Version | Graphics & Text | Print | Product List | Glossary On
Versions: 1 2 3 4 5 6 7 8 9 10 11 12 13 14 15 16 17 18 19 20 21 22 23 24 25 26 27
000
ASUS45 KBOU 231506
RWRCO

WEATHER ROUNDUP FOR COLORADO
NATIONAL WEATHER SERVICE DENVER/BOULDER CO
900 AM MDT WED APR 23 2014

NOTE: "FAIR" INDICATES FEW OR NO CLOUDS BELOW 12000 FEET WITH NO
SIGNIFICANT WEATHER AND/OR OBSTRUCTIONS TO VISIBILITY.

COZ001>005-013-030-031-231600-
...NORTHWEST COLORADO...

CITY           SKY/WX    TMP DP  RH WIND       PRES   REMARKS
CRAIG          CLOUDY    40  32  73 NW6       29.88R
HAYDEN         CLOUDY    37  32  81 W3        29.89R
MEEKER         MOSUNNY   45  25  45 W9        29.86S
MOUNT WERNER   CLOUDY    28  27  93 W12G18    29.90S VSB<1/4 WCI  18
STEAMBOAT SPGS CLOUDY    38  36  90 E7        29.85F
WALDEN         CLOUDY    34  32  93 E8        29.82F WCI  27
$$

COZ006>008-011-231600-
...WEST CENTRAL VALLEYS...

CITY           SKY/WX    TMP DP  RH WIND       PRES   REMARKS
GRAND JUNCTION MOSUNNY   52  21  29 NW23G31   29.84R
MONTROSE       PTSUNNY   55  25  31 W14       29.83R
EAGLE          MOSUNNY   50  28  43 NW12G17   29.81S
RIFLE          SUNNY     49  13  23 NW16G25   29.84R
DELTA          NOT AVBL
NUCLA          NOT AVBL
$$

COZ017>023-064>068-231600-
...SOUTHWEST COLORADO...

CITY           SKY/WX    TMP DP  RH WIND       PRES   REMARKS
DURANGO        SUNNY     56  20  24 W15       29.87S
CORTEZ         SUNNY     57  23  26 SW10      29.86R
PAGOSA SPRINGS PTSUNNY   52  19  27 SW9       29.92S
TELLURIDE      MOSUNNY   45  16  31 SW14G23   29.91S
WOLF CREEK PAS PTSUNNY   30  21  69 SW26G46   29.98F WCI  16
$$

COZ009-010-012-014-032>034-037-058>063-231600-
...CENTRAL COLORADO...

CITY           SKY/WX    TMP DP  RH WIND       PRES   REMARKS
ASPEN          PTSUNNY   47  28  47 N9        29.82R
BUENA VISTA    PTSUNNY   49  20  31 W14G26    29.81F
COPPER MTN     MOSUNNY   34  21  60 SW15G24   29.92F WCI  24
BERTHOUD PASS  CLOUDY    25  14  63 W20       29.93R HAZE    WCI  11
COTTONWOOD PAS CLOUDY    45  18  33 W15G29    29.86F
GUNNISON       SUNNY     52  21  30 SW17G26   29.85S
KREMMLING      CLOUDY    41  28  60 N13G18    29.83F
LEADVILLE      MOSUNNY   38  22  52 VRB5      29.85F
MONARCH PASS   CLOUDY    32  21  64 W29G37    30.04R WCI  18
SALIDA         CLOUDY    55  25  31 W9G23     29.88S
SUNLIGHT       MOSUNNY   30  27  86 SW3       29.89F
WILKERSON PASS MOSUNNY   36  23  60 SW16G29   29.91F
$$

COZ069>075-231600-
...SAN LUIS VALLEY/SANGRE DE CRISTO MOUNTAINS...

CITY           SKY/WX    TMP DP  RH WIND       PRES   REMARKS
ALAMOSA        SUNNY     56  21  25 SW21G29   29.83F
LA VETA PASS   SUNNY     43  25  49 SW17G35   29.91R
SAGUACHE       PTSUNNY   52  21  30 E5        29.82S
$$

COZ035-036-038>040-231600-
...NORTHERN COLORADO FRONT RANGE...

CITY           SKY/WX    TMP DP  RH WIND       PRES   REMARKS
DENVER INTL AP MOSUNNY   65  29  25 W14       29.63S
DMNS CITY PARK   N/A     65  26  22 N3        29.64R
AURORA         PTSUNNY   64  28  25 SW10      29.65R
FRONT RANGE AP MOSUNNY   68  28  22 SW16      29.64R
ERIE MUNI ARPT SUNNY     64  30  27 W24G31    29.63S
BOULDER MUN AP SUNNY     63  30  29 SW14G24   29.64R
CENTENNIAL     MOSUNNY   63  27  25 SE12      29.66S
BROOMFIELD     MOSUNNY   63  32  31 W16G24    29.65S
FORT COLLINS   SUNNY     63  39  42 N5        29.64R
LONGMONT       NOT AVBL
$$

COZ041-046-047-076>085-087-088-231600-
...PIKES PEAK/PALMER DIVIDE AND SOUTHERN FOOTHILLS...

CITY           SKY/WX    TMP DP  RH WIND       PRES   REMARKS
COLO. SPRINGS  MOSUNNY   64  24  21 S21       29.70S
A. F. ACADEMY  SUNNY     61  21  21 SW18G26   29.70F
ELLICOTT       NOT AVBL
FALCON         SUNNY     62  23  22 S14       29.74S
FORT CARSON    SUNNY     65  27  24 SE15      29.68F
LIMON          PTSUNNY   64  36  35 S14G20    29.66F
MONUMENT HILL  MOSUNNY   59  21  23 S7G18     29.73S
TRINIDAD       MOSUNNY   64  27  24 S13       29.75F
$$

COZ042>045-048>051-090-091-231600-
...NORTHEAST COLORADO...

CITY           SKY/WX    TMP DP  RH WIND       PRES   REMARKS
GREELEY ARPT   MOSUNNY   61  39  44 NW24      29.61F
AKRON          CLOUDY    62  35  36 NW18G33   29.61R
BURLINGTON     CLOUDY    66  43  43 SW24      29.63F
WRAY           CLOUDY    67  44  43 SW21G26   29.54S
STERLING       NOT AVBL
HOLYOKE        NOT AVBL
FORT MORGAN    NOT AVBL
$$

COZ086-089-092>099-231600-
...SOUTHEAST COLORADO...

CITY           SKY/WX    TMP DP  RH WIND       PRES   REMARKS
PUEBLO         SUNNY     70  27  20 S14       29.64S
LA JUNTA       PTSUNNY   69  40  34 SW21      29.65F
LAMAR          CLOUDY    72  43  35 SW23G30   29.62F
SPRINGFIELD      N/A     68  43  40 SW20G33   29.71F
$$



USA.gov is the U.S. government's official web portal to all federal, state and local government web resources and services.